Location: Gazon
(48.1318°N, 1.2708°W)
Time: 22:09:37
(UTC+00:00)

USA 234 - Pass Details

Date: 18 September 2020
Orbit: 1102 x 1106 km, 123.0° (Epoch: 16 October)

Event Time Altitude Azimuth Distance (km) Brightness Sun altitude
Exits shadow 20:19:21 - 56° (NE) 3,482 5.6 -21.4°
Reaches altitude 10° 20:20:43 10° 58° (ENE) 2,967 5.2 -21.6°
Maximum altitude 20:27:13 64° 139° (SE) 1,209 3.2 -22.6°
Drops below altitude 10° 20:33:42 10° 221° (SW) 2,957 5.6 -23.5°
Sets 20:36:13 0° 224° (SW) 3,913 6.3 -23.8°
